Time,TemperatureF,DewpointF,PressureIn,WindDirection,WindDirectionDegrees,WindSpeedMPH,WindSpeedGustMPH,Humidity,HourlyPrecipIn,Conditions,Clouds,dailyrainin,SoftwareType,DateUTC
2013-04-08 00:00:00,43.1,35.4,30.06,SSW,193,0.0,3.0,74,0.00,,RMK !SN!,0.00,WUHU216DAVISVP2,2013-04-08 04:00:00,
2013-04-08 00:06:00,43.1,35.4,30.06,SSE,162,0.0,3.0,74,0.00,,RMK !SN!,0.00,WUHU216DAVISVP2,2013-04-08 04:06:00,
2013-04-08 00:07:00,43.0,35.3,30.06,SSE,162,0.0,3.0,74,0.00,,RMK !SN!,0.00,WUHU216DAVISVP2,2013-04-08 04:07:00,
2013-04-08 00:12:00,42.9,35.6,30.06,SSW,197,0.0,3.0,75,0.00,,RMK !SN!,0.00,WUHU216DAVISVP2,2013-04-08 04:12:00,
2013-04-08 00:17:00,42.9,35.6,30.06,SSE,165,0.0,3.0,75,0.00,,RMK !SN!,0.00,WUHU216DAVISVP2,2013-04-08 04:17:00,
2013-04-08 00:22:00,42.7,35.4,30.06,South,176,1.0,3.0,75,0.00,,RMK !SN!,0.00,WUHU216DAVISVP2,2013-04-08 04:22:00,
2013-04-08 00:27:00,42.6,35.3,30.06,South,180,1.0,3.0,75,0.00,,RMK !SN!,0.00,WUHU216DAVISVP2,2013-04-08 04:27:00,
2013-04-08 00:32:00,42.5,35.2,30.06,South,177,0.0,3.0,75,0.00,,RMK !SN!,0.00,WUHU216DAVISVP2,2013-04-08 04:32:00,
2013-04-08 00:37:00,42.4,35.1,30.06,South,175,0.0,3.0,75,0.00,,RMK !SN!,0.00,WUHU216DAVISVP2,2013-04-08 04:37:00,
2013-04-08 00:42:00,42.3,35.3,30.06,South,187,0.0,3.0,76,0.00,,RMK !SN!,0.00,WUHU216DAVISVP2,2013-04-08 04:42:00,
2013-04-08 00:47:00,42.1,35.1,30.06,SSE,160,0.0,2.0,76,0.00,,RMK !SN!,0.00,WUHU216DAVISVP2,2013-04-08 04:47:00,
2013-04-08 00:52:00,41.9,34.9,30.06,South,169,0.0,2.0,76,0.00,,RMK !SN!,0.00,WUHU216DAVISVP2,2013-04-08 04:52:00,
2013-04-08 00:57:00,41.7,35.1,30.06,SSE,163,0.0,2.0,77,0.00,,RMK !SN!,0.00,WUHU216DAVISVP2,2013-04-08 04:57:00,
2013-04-08 01:02:00,41.5,34.8,30.07,SSE,165,0.0,2.0,77,0.00,,RMK !SN!,0.00,WUHU216DAVISVP2,2013-04-08 05:02:00,
2013-04-08 01:07:00,41.4,34.8,30.07,SSE,165,0.0,2.0,77,0.00,,RMK !SN!,0.00,WUHU216DAVISVP2,2013-04-08 05:07:00,
2013-04-08 01:12:00,41.2,34.6,30.07,SSE,165,0.0,2.0,77,0.00,,RMK !SN!,0.00,WUHU216DAVISVP2,2013-04-08 05:12:00,
2013-04-08 01:17:00,41.1,34.4,30.07,SSE,165,0.0,2.0,77,0.00,,RMK !SN!,0.00,WUHU216DAVISVP2,2013-04-08 05:17:00,
2013-04-08 01:22:00,40.8,34.5,30.08,SSE,165,0.0,2.0,78,0.00,,RMK !SN!,0.00,WUHU216DAVISVP2,2013-04-08 05:22:00,
2013-04-08 01:27:00,40.7,34.4,30.08,SSW,193,0.0,1.0,78,0.00,,RMK !SN!,0.00,WUHU216DAVISVP2,2013-04-08 05:27:00,
2013-04-08 01:32:00,40.6,34.3,30.08,SSW,193,0.0,1.0,78,0.00,,RMK !SN!,0.00,WUHU216DAVISVP2,2013-04-08 05:32:00,
2013-04-08 01:37:00,40.5,34.5,30.08,SSE,161,0.0,1.0,79,0.00,,RMK !SN!,0.00,WUHU216DAVISVP2,2013-04-08 05:37:00,
2013-04-08 01:42:00,40.3,34.3,30.08,SE,143,0.0,1.0,79,0.00,,RMK !SN!,0.00,WUHU216DAVISVP2,2013-04-08 05:42:00,
2013-04-08 01:47:00,40.3,34.3,30.08,SE,143,0.0,1.0,79,0.00,,RMK !SN!,0.00,WUHU216DAVISVP2,2013-04-08 05:47:00,
2013-04-08 01:52:00,40.2,34.2,30.08,SW,226,0.0,2.0,79,0.00,,RMK !SN!,0.00,WUHU216DAVISVP2,2013-04-08 05:52:00,
2013-04-08 01:57:00,40.1,34.4,30.07,South,170,0.0,2.0,80,0.00,,RMK !SN!,0.00,WUHU216DAVISVP2,2013-04-08 05:57:00,
2013-04-08 02:03:00,40.1,34.4,30.07,SW,218,0.0,3.0,80,0.00,,RMK !SN!,0.00,WUHU216DAVISVP2,2013-04-08 06:03:00,
2013-04-08 02:08:00,40.1,34.4,30.08,SSE,167,1.0,3.0,80,0.00,,RMK !SN!,0.00,WUHU216DAVISVP2,2013-04-08 06:08:00,
2013-04-08 02:13:00,40.1,34.4,30.08,SW,225,0.0,3.0,80,0.00,,RMK !SN!,0.00,WUHU216DAVISVP2,2013-04-08 06:13:00,
2013-04-08 02:18:00,40.2,34.5,30.07,SSW,212,1.0,3.0,80,0.00,,RMK !SN!,0.00,WUHU216DAVISVP2,2013-04-08 06:18:00,
2013-04-08 02:23:00,40.1,34.4,30.07,South,187,0.0,2.0,80,0.00,,RMK !SN!,0.00,WUHU216DAVISVP2,2013-04-08 06:23:00,
2013-04-08 02:28:00,40.1,34.4,30.07,SSE,165,0.0,2.0,80,0.00,,RMK !SN!,0.00,WUHU216DAVISVP2,2013-04-08 06:28:00,
2013-04-08 02:33:00,39.9,34.2,30.07,SSE,165,0.0,2.0,80,0.00,,RMK !SN!,0.00,WUHU216DAVISVP2,2013-04-08 06:33:00,
2013-04-08 02:38:00,39.8,34.1,30.07,SSW,201,0.0,1.0,80,0.00,,RMK !SN!,0.00,WUHU216DAVISVP2,2013-04-08 06:38:00,
2013-04-08 02:43:00,39.7,34.1,30.07,South,177,0.0,1.0,80,0.00,,RMK !SN!,0.00,WUHU216DAVISVP2,2013-04-08 06:43:00,
2013-04-08 02:48:00,39.7,34.4,30.07,SSE,167,0.0,1.0,81,0.00,,RMK !SN!,0.00,WUHU216DAVISVP2,2013-04-08 06:48:00,
2013-04-08 02:53:00,39.6,34.3,30.07,South,191,0.0,2.0,81,0.00,,RMK !SN!,0.00,WUHU216DAVISVP2,2013-04-08 06:53:00,
2013-04-08 02:58:00,39.5,34.2,30.07,South,190,0.0,2.0,81,0.00,,RMK !SN!,0.00,WUHU216DAVISVP2,2013-04-08 06:58:00,
2013-04-08 03:03:00,39.5,34.2,30.06,SW,221,0.0,2.0,81,0.00,,RMK !SN!,0.00,WUHU216DAVISVP2,2013-04-08 07:03:00,
2013-04-08 03:08:00,39.5,34.2,30.06,SSE,165,0.0,4.0,81,0.00,,RMK !SN!,0.00,WUHU216DAVISVP2,2013-04-08 07:08:00,
2013-04-08 03:13:00,39.4,34.1,30.06,West,271,2.0,4.0,81,0.00,,RMK !SN!,0.00,WUHU216DAVISVP2,2013-04-08 07:13:00,
2013-04-08 03:18:00,39.4,34.1,30.07,South,172,0.0,4.0,81,0.00,,RMK !SN!,0.00,WUHU216DAVISVP2,2013-04-08 07:18:00,
2013-04-08 03:23:00,39.3,34.0,30.07,SSE,153,1.0,4.0,81,0.00,,RMK !SN!,0.00,WUHU216DAVISVP2,2013-04-08 07:23:00,
2013-04-08 03:28:00,39.3,34.0,30.06,SSE,149,0.0,4.0,81,0.00,,RMK !SN!,0.00,WUHU216DAVISVP2,2013-04-08 07:28:00,
2013-04-08 03:33:00,39.5,33.9,30.07,West,273,0.0,4.0,80,0.00,,RMK !SN!,0.00,WUHU216DAVISVP2,2013-04-08 07:33:00,
2013-04-08 03:38:00,39.5,33.9,30.07,SSW,210,0.0,4.0,80,0.00,,RMK !SN!,0.00,WUHU216DAVISVP2,2013-04-08 07:38:00,
2013-04-08 03:43:00,39.3,34.0,30.07,SE,134,0.0,4.0,81,0.00,,RMK !SN!,0.00,WUHU216DAVISVP2,2013-04-08 07:43:00,
2013-04-08 03:48:00,39.2,33.9,30.06,SE,125,0.0,4.0,81,0.00,,RMK !SN!,0.00,WUHU216DAVISVP2,2013-04-08 07:48:00,
2013-04-08 03:53:00,39.1,33.8,30.07,SSE,167,0.0,4.0,81,0.00,,RMK !SN!,0.00,WUHU216DAVISVP2,2013-04-08 07:53:00,
2013-04-08 03:58:00,39.1,33.8,30.07,WNW,297,0.0,4.0,81,0.00,,RMK !SN!,0.00,WUHU216DAVISVP2,2013-04-08 07:58:00,
2013-04-08 04:03:00,39.1,33.8,30.07,SSE,163,1.0,3.0,81,0.00,,RMK !SN!,0.00,WUHU216DAVISVP2,2013-04-08 08:03:00,
2013-04-08 04:08:00,39.1,33.8,30.06,SSE,167,0.0,3.0,81,0.00,,RMK !SN!,0.00,WUHU216DAVISVP2,2013-04-08 08:08:00,
2013-04-08 04:13:00,39.1,33.8,30.06,SE,139,0.0,3.0,81,0.00,,RMK !SN!,0.00,WUHU216DAVISVP2,2013-04-08 08:13:00,
2013-04-08 04:18:00,38.9,33.6,30.06,SSE,158,0.0,3.0,81,0.00,,RMK !SN!,0.00,WUHU216DAVISVP2,2013-04-08 08:18:00,
2013-04-08 04:23:00,39.1,33.8,30.06,SSW,195,0.0,4.0,81,0.00,,RMK !SN!,0.00,WUHU216DAVISVP2,2013-04-08 08:23:00,
2013-04-08 04:28:00,39.2,33.9,30.06,South,187,0.0,4.0,81,0.00,,RMK !SN!,0.00,WUHU216DAVISVP2,2013-04-08 08:28:00,
2013-04-08 04:33:00,39.3,34.0,30.06,South,169,0.0,4.0,81,0.00,,RMK !SN!,0.00,WUHU216DAVISVP2,2013-04-08 08:33:00,
2013-04-08 04:38:00,39.3,34.0,30.06,SW,225,0.0,4.0,81,0.00,,RMK !SN!,0.00,WUHU216DAVISVP2,2013-04-08 08:38:00,
2013-04-08 04:43:00,39.6,34.0,30.06,WNW,288,0.0,6.0,80,0.00,,RMK !SN!,0.00,WUHU216DAVISVP2,2013-04-08 08:43:00,
2013-04-08 04:48:00,39.6,34.0,30.06,SSW,200,1.0,6.0,80,0.00,,RMK !SN!,0.00,WUHU216DAVISVP2,2013-04-08 08:48:00,
2013-04-08 04:53:00,39.6,34.0,30.06,West,269,4.0,6.0,80,0.00,,RMK !SN!,0.00,WUHU216DAVISVP2,2013-04-08 08:53:00,
2013-04-08 04:58:00,39.7,34.1,30.05,SSE,165,0.0,6.0,80,0.00,,RMK !SN!,0.00,WUHU216DAVISVP2,2013-04-08 08:58:00,
2013-04-08 05:03:00,39.7,34.1,30.05,WSW,250,1.0,6.0,80,0.00,,RMK !SN!,0.00,WUHU216DAVISVP2,2013-04-08 09:03:00,
2013-04-08 05:08:00,39.7,34.0,30.05,South,179,1.0,6.0,80,0.00,,RMK !SN!,0.00,WUHU216DAVISVP2,2013-04-08 09:08:00,
2013-04-08 05:13:00,39.7,34.0,30.04,South,183,0.0,5.0,80,0.00,,RMK !SN!,0.00,WUHU216DAVISVP2,2013-04-08 09:13:00,
2013-04-08 05:18:00,39.7,34.1,30.04,WSW,245,2.0,8.0,80,0.00,,RMK !SN!,0.00,WUHU216DAVISVP2,2013-04-08 09:18:00,
2013-04-08 05:23:00,39.6,34.0,30.04,SSW,207,1.0,8.0,80,0.00,,RMK !SN!,0.00,WUHU216DAVISVP2,2013-04-08 09:23:00,
2013-04-08 05:28:00,39.6,34.0,30.04,WSW,252,1.0,8.0,80,0.00,,RMK !SN!,0.00,WUHU216DAVISVP2,2013-04-08 09:28:00,
2013-04-08 05:33:00,39.5,33.9,30.03,SSW,196,2.0,5.0,80,0.00,,RMK !SN!,0.00,WUHU216DAVISVP2,2013-04-08 09:33:00,
2013-04-08 05:38:00,39.5,33.9,30.03,SW,227,1.0,6.0,80,0.00,,RMK !SN!,0.00,WUHU216DAVISVP2,2013-04-08 09:38:00,
2013-04-08 05:43:00,39.5,33.9,30.04,WSW,257,1.0,6.0,80,0.00,,RMK !SN!,0.00,WUHU216DAVISVP2,2013-04-08 09:43:00,
2013-04-08 05:48:00,39.4,33.7,30.04,SW,231,3.0,6.0,80,0.00,,RMK !SN!,0.00,WUHU216DAVISVP2,2013-04-08 09:48:00,
2013-04-08 05:53:00,39.3,34.0,30.04,SSE,150,0.0,6.0,81,0.00,,RMK !SN!,0.00,WUHU216DAVISVP2,2013-04-08 09:53:00,
2013-04-08 05:58:00,39.3,34.0,30.03,West,260,1.0,6.0,81,0.00,,RMK !SN!,0.00,WUHU216DAVISVP2,2013-04-08 09:58:00,
2013-04-08 06:03:00,39.2,33.9,30.04,SW,225,2.0,6.0,81,0.00,,RMK !SN!,0.00,WUHU216DAVISVP2,2013-04-08 10:03:00,
2013-04-08 06:08:00,39.2,33.9,30.04,SW,231,0.0,6.0,81,0.00,,RMK !SN!,0.00,WUHU216DAVISVP2,2013-04-08 10:08:00,
2013-04-08 06:13:00,39.1,33.8,30.04,West,276,4.0,7.0,81,0.00,,RMK !SN!,0.00,WUHU216DAVISVP2,2013-04-08 10:13:00,
2013-04-08 06:18:00,39.2,33.9,30.04,SSW,198,1.0,7.0,81,0.00,,RMK !SN!,0.00,WUHU216DAVISVP2,2013-04-08 10:18:00,
2013-04-08 06:23:00,39.1,33.8,30.04,South,170,1.0,7.0,81,0.00,,RMK !SN!,0.00,WUHU216DAVISVP2,2013-04-08 10:23:00,
2013-04-08 06:28:00,39.2,33.9,30.04,SSW,211,2.0,7.0,81,0.00,,RMK !SN!,0.00,WUHU216DAVISVP2,2013-04-08 10:28:00,
2013-04-08 06:33:00,39.2,33.9,30.04,South,183,0.0,5.0,81,0.00,,RMK !SN!,0.00,WUHU216DAVISVP2,2013-04-08 10:33:00,
2013-04-08 06:38:00,39.3,34.3,30.03,SSW,207,0.0,5.0,82,0.00,,RMK !SN!,0.00,WUHU216DAVISVP2,2013-04-08 10:38:00,
2013-04-08 06:43:00,39.6,34.3,30.03,SSW,203,1.0,5.0,81,0.00,,RMK !SN!,0.00,WUHU216DAVISVP2,2013-04-08 10:43:00,
2013-04-08 06:48:00,39.9,34.6,30.03,SW,233,2.0,5.0,81,0.00,,RMK !SN!,0.00,WUHU216DAVISVP2,2013-04-08 10:48:00,
2013-04-08 06:53:00,40.3,34.6,30.03,WNW,297,1.0,5.0,80,0.00,,RMK !SN!,0.00,WUHU216DAVISVP2,2013-04-08 10:53:00,
2013-04-08 06:58:00,40.5,34.8,30.03,SSW,213,1.0,5.0,80,0.00,,RMK !SN!,0.00,WUHU216DAVISVP2,2013-04-08 10:58:00,
2013-04-08 07:03:00,40.7,34.7,30.04,SSW,204,1.0,6.0,79,0.00,,RMK !SN!,0.00,WUHU216DAVISVP2,2013-04-08 11:03:00,
2013-04-08 07:08:00,40.8,34.8,30.04,WSW,250,0.0,6.0,79,0.00,,RMK !SN!,0.00,WUHU216DAVISVP2,2013-04-08 11:08:00,
2013-04-08 07:13:00,40.7,35.0,30.05,WSW,249,0.0,6.0,80,0.00,,RMK !SN!,0.00,WUHU216DAVISVP2,2013-04-08 11:13:00,
2013-04-08 07:18:00,40.6,34.9,30.05,WSW,239,0.0,6.0,80,0.00,,RMK !SN!,0.00,WUHU216DAVISVP2,2013-04-08 11:18:00,
2013-04-08 07:23:00,40.6,34.9,30.05,ESE,115,0.0,5.0,80,0.00,,RMK !SN!,0.00,WUHU216DAVISVP2,2013-04-08 11:23:00,
2013-04-08 07:28:00,40.5,34.8,30.05,NW,311,2.0,5.0,80,0.00,,RMK !SN!,0.00,WUHU216DAVISVP2,2013-04-08 11:28:00,
2013-04-08 07:33:00,40.6,35.2,30.06,SSE,167,0.0,5.0,81,0.00,,RMK !SN!,0.00,WUHU216DAVISVP2,2013-04-08 11:33:00,
2013-04-08 07:38:00,40.8,35.4,30.06,East,98,0.0,5.0,81,0.00,,RMK !SN!,0.00,WUHU216DAVISVP2,2013-04-08 11:38:00,
2013-04-08 07:43:00,41.0,35.6,30.06,WNW,285,1.0,6.0,81,0.00,,RMK !SN!,0.00,WUHU216DAVISVP2,2013-04-08 11:43:00,
2013-04-08 07:48:00,41.3,35.9,30.06,WSW,247,1.0,6.0,81,0.00,,RMK !SN!,0.00,WUHU216DAVISVP2,2013-04-08 11:48:00,
2013-04-08 07:53:00,41.6,36.2,30.06,SE,145,1.0,6.0,81,0.00,,RMK !SN!,0.00,WUHU216DAVISVP2,2013-04-08 11:53:00,
2013-04-08 07:58:00,42.0,36.6,30.05,NNW,338,0.0,7.0,81,0.00,,RMK !SN!,0.00,WUHU216DAVISVP2,2013-04-08 11:58:00,
2013-04-08 08:04:00,42.4,36.7,30.05,NE,46,2.0,7.0,80,0.00,,RMK !SN!,0.00,WUHU216DAVISVP2,2013-04-08 12:04:00,
2013-04-08 08:09:00,43.1,37.1,30.05,West,259,4.0,6.0,79,0.00,,RMK !SN!,0.00,WUHU216DAVISVP2,2013-04-08 12:09:00,
2013-04-08 08:14:00,43.7,37.3,30.05,WSW,245,4.0,7.0,78,0.00,,RMK !SN!,0.00,WUHU216DAVISVP2,2013-04-08 12:14:00,
2013-04-08 08:19:00,44.4,37.7,30.05,SW,222,5.0,7.0,77,0.00,,RMK !SN!,0.00,WUHU216DAVISVP2,2013-04-08 12:19:00,
2013-04-08 08:24:00,45.1,38.0,30.05,SW,235,0.0,6.0,76,0.00,,RMK !SN!,0.00,WUHU216DAVISVP2,2013-04-08 12:24:00,
2013-04-08 08:29:00,45.9,38.5,30.05,SW,222,1.0,7.0,75,0.00,,RMK !SN!,0.00,WUHU216DAVISVP2,2013-04-08 12:29:00,
2013-04-08 08:34:00,46.3,38.5,30.05,NE,49,1.0,7.0,74,0.00,,RMK !SN!,0.00,WUHU216DAVISVP2,2013-04-08 12:34:00,
2013-04-08 08:39:00,46.7,38.6,30.04,WNW,290,3.0,7.0,73,0.00,,RMK !SN!,0.00,WUHU216DAVISVP2,2013-04-08 12:39:00,
2013-04-08 08:44:00,47.3,39.2,30.04,WSW,245,1.0,6.0,73,0.00,,RMK !SN!,0.00,WUHU216DAVISVP2,2013-04-08 12:44:00,
2013-04-08 08:49:00,48.1,39.1,30.04,SW,214,1.0,6.0,71,0.00,,RMK !SN!,0.00,WUHU216DAVISVP2,2013-04-08 12:49:00,
2013-04-08 08:54:00,48.8,39.5,30.04,SW,226,1.0,8.0,70,0.00,,RMK !SN!,0.00,WUHU216DAVISVP2,2013-04-08 12:54:00,
2013-04-08 08:59:00,49.3,39.7,30.04,WNW,302,1.0,10.0,69,0.00,,RMK !SN!,0.00,WUHU216DAVISVP2,2013-04-08 12:59:00,
2013-04-08 09:04:00,49.8,39.7,30.03,SE,145,0.0,11.0,68,0.00,,RMK !SN!,0.00,WUHU216DAVISVP2,2013-04-08 13:04:00,
2013-04-08 09:09:00,50.3,39.9,30.03,NNW,348,7.0,11.0,67,0.00,,RMK !SN!,0.00,WUHU216DAVISVP2,2013-04-08 13:09:00,
2013-04-08 09:14:00,50.5,40.1,30.03,NW,318,3.0,11.0,67,0.00,,RMK !SN!,0.00,WUHU216DAVISVP2,2013-04-08 13:14:00,
2013-04-08 09:19:00,51.0,40.5,30.03,SSW,204,1.0,10.0,67,0.00,,RMK !SN!,0.00,WUHU216DAVISVP2,2013-04-08 13:19:00,
2013-04-08 09:24:00,51.6,40.7,30.03,WSW,240,0.0,10.0,66,0.00,,RMK !SN!,0.00,WUHU216DAVISVP2,2013-04-08 13:24:00,
2013-04-08 09:30:00,51.7,40.3,30.02,NNE,26,3.0,11.0,65,0.00,,RMK !SN!,0.00,WUHU216DAVISVP2,2013-04-08 13:30:00,
2013-04-08 09:35:00,51.9,40.6,30.02,North,358,0.0,11.0,65,0.00,,RMK !SN!,0.00,WUHU216DAVISVP2,2013-04-08 13:35:00,
2013-04-08 09:40:00,52.2,41.3,30.02,SSW,194,1.0,11.0,66,0.00,,RMK !SN!,0.00,WUHU216DAVISVP2,2013-04-08 13:40:00,
2013-04-08 09:45:00,52.6,41.3,30.02,West,276,1.0,11.0,65,0.00,,RMK !SN!,0.00,WUHU216DAVISVP2,2013-04-08 13:45:00,
2013-04-08 09:50:00,53.2,41.5,30.01,WNW,299,2.0,8.0,64,0.00,,RMK !SN!,0.00,WUHU216DAVISVP2,2013-04-08 13:50:00,
2013-04-08 09:55:00,53.8,41.6,30.01,NE,45,5.0,13.0,63,0.00,,RMK !SN!,0.00,WUHU216DAVISVP2,2013-04-08 13:55:00,
2013-04-08 10:00:00,54.1,41.9,30.01,WSW,243,4.0,13.0,63,0.00,,RMK !SN!,0.00,WUHU216DAVISVP2,2013-04-08 14:00:00,
2013-04-08 10:05:00,54.7,42.5,30.01,NNW,332,5.0,13.0,63,0.00,,RMK !SN!,0.00,WUHU216DAVISVP2,2013-04-08 14:05:00,
2013-04-08 10:10:00,55.1,42.4,30.01,NNW,336,4.0,13.0,62,0.00,,RMK !SN!,0.00,WUHU216DAVISVP2,2013-04-08 14:10:00,
2013-04-08 10:15:00,55.5,42.8,30.01,SSW,194,1.0,12.0,62,0.00,,RMK !SN!,0.00,WUHU216DAVISVP2,2013-04-08 14:15:00,
2013-04-08 10:20:00,55.8,43.1,30.01,NW,310,1.0,13.0,62,0.00,,RMK !SN!,0.00,WUHU216DAVISVP2,2013-04-08 14:20:00,
2013-04-08 10:25:00,56.1,42.8,30.01,NW,316,3.0,13.0,61,0.00,,RMK !SN!,0.00,WUHU216DAVISVP2,2013-04-08 14:25:00,
2013-04-08 10:30:00,56.3,43.0,30.01,East,86,2.0,13.0,61,0.00,,RMK !SN!,0.00,WUHU216DAVISVP2,2013-04-08 14:30:00,
2013-04-08 10:35:00,56.8,43.2,30.01,NE,47,3.0,13.0,60,0.00,,RMK !SN!,0.00,WUHU216DAVISVP2,2013-04-08 14:35:00,
2013-04-08 10:40:00,57.2,43.4,30.01,NNE,13,3.0,9.0,60,0.00,,RMK !SN!,0.00,WUHU216DAVISVP2,2013-04-08 14:40:00,
2013-04-08 10:45:00,57.2,43.0,30.00,NNW,345,6.0,12.0,59,0.00,,RMK !SN!,0.00,WUHU216DAVISVP2,2013-04-08 14:45:00,
2013-04-08 10:50:00,57.2,43.6,30.01,WNW,294,3.0,12.0,60,0.00,,RMK !SN!,0.00,WUHU216DAVISVP2,2013-04-08 14:50:00,
2013-04-08 10:55:00,57.2,43.4,30.00,WSW,253,2.0,12.0,60,0.00,,RMK !SN!,0.00,WUHU216DAVISVP2,2013-04-08 14:55:00,
2013-04-08 11:00:00,57.2,43.4,30.00,NNE,18,5.0,12.0,60,0.00,,RMK !SN!,0.00,WUHU216DAVISVP2,2013-04-08 15:00:00,
2013-04-08 11:05:00,57.6,43.8,30.00,NW,318,6.0,10.0,60,0.00,,RMK !SN!,0.00,WUHU216DAVISVP2,2013-04-08 15:05:00,
2013-04-08 11:10:00,58.0,43.7,30.00,North,349,7.0,10.0,59,0.00,,RMK !SN!,0.00,WUHU216DAVISVP2,2013-04-08 15:10:00,
2013-04-08 11:15:00,58.4,44.2,30.00,North,352,10.0,10.0,59,0.00,,RMK !SN!,0.00,WUHU216DAVISVP2,2013-04-08 15:15:00,
2013-04-08 11:20:00,58.8,44.6,29.99,NNW,345,8.0,10.0,59,0.00,,RMK !SN!,0.00,WUHU216DAVISVP2,2013-04-08 15:20:00,
2013-04-08 11:25:00,59.1,44.9,29.99,NNW,328,4.0,10.0,59,0.00,,RMK !SN!,0.00,WUHU216DAVISVP2,2013-04-08 15:25:00,
2013-04-08 11:30:00,59.2,45.0,29.99,West,278,1.0,10.0,59,0.00,,RMK !SN!,0.00,WUHU216DAVISVP2,2013-04-08 15:30:00,
2013-04-08 11:35:00,59.2,45.0,29.99,SE,146,2.0,10.0,59,0.00,,RMK !SN!,0.00,WUHU216DAVISVP2,2013-04-08 15:35:00,
2013-04-08 11:40:00,59.1,45.8,29.99,WNW,302,5.0,10.0,61,0.00,,RMK !SN!,0.00,WUHU216DAVISVP2,2013-04-08 15:40:00,
2013-04-08 11:45:00,58.8,45.9,29.99,NNE,13,2.0,10.0,62,0.00,,RMK !SN!,0.00,WUHU216DAVISVP2,2013-04-08 15:45:00,
2013-04-08 11:50:00,58.7,45.8,29.99,East,95,2.0,10.0,62,0.00,,RMK !SN!,0.00,WUHU216DAVISVP2,2013-04-08 15:50:00,
2013-04-08 11:55:00,58.6,45.6,29.98,NNW,342,4.0,9.0,62,0.00,,RMK !SN!,0.00,WUHU216DAVISVP2,2013-04-08 15:55:00,
2013-04-08 12:00:00,58.8,46.2,29.97,ENE,70,3.0,9.0,63,0.00,,RMK !SN!,0.00,WUHU216DAVISVP2,2013-04-08 16:00:00,
2013-04-08 12:05:00,59.2,46.2,29.97,SSW,201,1.0,7.0,62,0.00,,RMK !SN!,0.00,WUHU216DAVISVP2,2013-04-08 16:05:00,
2013-04-08 12:11:00,59.7,46.8,29.96,SE,136,0.0,6.0,62,0.00,,RMK !SN!,0.00,WUHU216DAVISVP2,2013-04-08 16:11:00,
2013-04-08 12:16:00,60.8,47.8,29.96,WSW,252,4.0,6.0,62,0.00,,RMK !SN!,0.00,WUHU216DAVISVP2,2013-04-08 16:16:00,
2013-04-08 12:21:00,61.6,47.7,29.96,North,11,6.0,9.0,60,0.00,,RMK !SN!,0.00,WUHU216DAVISVP2,2013-04-08 16:21:00,
2013-04-08 12:26:00,62.2,48.3,29.96,NW,316,7.0,13.0,60,0.00,,RMK !SN!,0.00,WUHU216DAVISVP2,2013-04-08 16:26:00,
2013-04-08 12:31:00,62.9,48.5,29.95,NNW,345,1.0,17.0,59,0.00,,RMK !SN!,0.00,WUHU216DAVISVP2,2013-04-08 16:31:00,
2013-04-08 12:36:00,64.1,48.7,29.95,NW,322,3.0,17.0,57,0.00,,RMK !SN!,0.00,WUHU216DAVISVP2,2013-04-08 16:36:00,
2013-04-08 12:41:00,64.9,48.9,29.94,North,357,8.0,15.0,56,0.00,,RMK !SN!,0.00,WUHU216DAVISVP2,2013-04-08 16:41:00,
2013-04-08 12:46:00,64.9,48.9,29.94,SW,215,0.0,15.0,56,0.00,,RMK !SN!,0.00,WUHU216DAVISVP2,2013-04-08 16:46:00,
2013-04-08 12:51:00,65.8,48.8,29.94,NNW,335,9.0,12.0,54,0.00,,RMK !SN!,0.00,WUHU216DAVISVP2,2013-04-08 16:51:00,
2013-04-08 12:56:00,66.1,48.6,29.94,NNW,345,4.0,14.0,53,0.00,,RMK !SN!,0.00,WUHU216DAVISVP2,2013-04-08 16:56:00,
2013-04-08 13:01:00,66.0,48.5,29.94,NE,37,3.0,14.0,53,0.00,,RMK !SN!,0.00,WUHU216DAVISVP2,2013-04-08 17:01:00,
2013-04-08 13:06:00,65.9,48.4,29.93,NW,308,4.0,14.0,53,0.00,,RMK !SN!,0.00,WUHU216DAVISVP2,2013-04-08 17:06:00,
2013-04-08 13:11:00,66.2,48.6,29.93,NNE,22,3.0,14.0,53,0.00,,RMK !SN!,0.00,WUHU216DAVISVP2,2013-04-08 17:11:00,
2013-04-08 13:16:00,66.4,48.3,29.93,NE,36,3.0,17.0,52,0.00,,RMK !SN!,0.00,WUHU216DAVISVP2,2013-04-08 17:16:00,
2013-04-08 13:21:00,66.2,48.1,29.93,NW,325,10.0,17.0,52,0.00,,RMK !SN!,0.00,WUHU216DAVISVP2,2013-04-08 17:21:00,
2013-04-08 13:26:00,66.4,48.8,29.93,ENE,73,2.0,17.0,53,0.00,,RMK !SN!,0.00,WUHU216DAVISVP2,2013-04-08 17:26:00,
2013-04-08 13:31:00,66.8,48.7,29.93,NW,324,5.0,17.0,52,0.00,,RMK !SN!,0.00,WUHU216DAVISVP2,2013-04-08 17:31:00,
2013-04-08 13:36:00,67.0,48.9,29.92,NNW,341,5.0,15.0,52,0.00,,RMK !SN!,0.00,WUHU216DAVISVP2,2013-04-08 17:36:00,
2013-04-08 13:41:00,67.3,48.6,29.92,NW,310,4.0,15.0,51,0.00,,RMK !SN!,0.00,WUHU216DAVISVP2,2013-04-08 17:41:00,
2013-04-08 13:46:00,67.3,48.6,29.92,NW,311,6.0,14.0,51,0.00,,RMK !SN!,0.00,WUHU216DAVISVP2,2013-04-08 17:46:00,
2013-04-08 13:51:00,67.4,48.7,29.92,East,79,4.0,14.0,51,0.00,,RMK !SN!,0.00,WUHU216DAVISVP2,2013-04-08 17:51:00,
2013-04-08 13:56:00,67.3,49.1,29.91,ESE,120,2.0,12.0,52,0.00,,RMK !SN!,0.00,WUHU216DAVISVP2,2013-04-08 17:56:00,
2013-04-08 14:01:00,67.2,48.5,29.91,NNE,20,4.0,18.0,51,0.00,,RMK !SN!,0.00,WUHU216DAVISVP2,2013-04-08 18:01:00,
2013-04-08 14:06:00,67.4,48.6,29.91,SE,135,2.0,18.0,51,0.00,,RMK !SN!,0.00,WUHU216DAVISVP2,2013-04-08 18:06:00,
2013-04-08 14:11:00,67.8,49.5,29.90,NW,310,9.0,18.0,52,0.00,,RMK !SN!,0.00,WUHU216DAVISVP2,2013-04-08 18:11:00,
2013-04-08 14:16:00,67.9,49.1,29.89,NE,37,2.0,18.0,51,0.00,,RMK !SN!,0.00,WUHU216DAVISVP2,2013-04-08 18:16:00,
2013-04-08 14:21:00,68.1,49.3,29.89,North,349,6.0,14.0,51,0.00,,RMK !SN!,0.00,WUHU216DAVISVP2,2013-04-08 18:21:00,
2013-04-08 14:27:00,68.2,48.8,29.89,NW,312,5.0,17.0,50,0.00,,RMK !SN!,0.00,WUHU216DAVISVP2,2013-04-08 18:27:00,
2013-04-08 14:32:00,68.5,49.2,29.89,NW,306,2.0,17.0,50,0.00,,RMK !SN!,0.00,WUHU216DAVISVP2,2013-04-08 18:32:00,
2013-04-08 14:37:00,68.5,49.1,29.88,NNE,32,5.0,15.0,50,0.00,,RMK !SN!,0.00,WUHU216DAVISVP2,2013-04-08 18:37:00,
2013-04-08 14:42:00,68.4,49.1,29.88,NNW,335,5.0,15.0,50,0.00,,RMK !SN!,0.00,WUHU216DAVISVP2,2013-04-08 18:42:00,
2013-04-08 14:47:00,68.4,49.1,29.89,East,80,5.0,16.0,50,0.00,,RMK !SN!,0.00,WUHU216DAVISVP2,2013-04-08 18:47:00,
2013-04-08 14:52:00,68.5,49.2,29.89,East,84,6.0,16.0,50,0.00,,RMK !SN!,0.00,WUHU216DAVISVP2,2013-04-08 18:52:00,
2013-04-08 14:57:00,68.6,48.7,29.89,WNW,301,7.0,16.0,49,0.00,,RMK !SN!,0.00,WUHU216DAVISVP2,2013-04-08 18:57:00,
2013-04-08 15:02:00,68.6,48.7,29.89,NE,50,5.0,16.0,49,0.00,,RMK !SN!,0.00,WUHU216DAVISVP2,2013-04-08 19:02:00,
2013-04-08 15:07:00,68.4,48.5,29.88,NE,50,2.0,16.0,49,0.00,,RMK !SN!,0.00,WUHU216DAVISVP2,2013-04-08 19:07:00,
2013-04-08 15:12:00,68.3,48.4,29.88,ENE,68,3.0,16.0,49,0.00,,RMK !SN!,0.00,WUHU216DAVISVP2,2013-04-08 19:12:00,
2013-04-08 15:17:00,68.3,48.4,29.88,East,84,3.0,14.0,49,0.00,,RMK !SN!,0.00,WUHU216DAVISVP2,2013-04-08 19:17:00,
2013-04-08 15:22:00,68.4,48.5,29.88,West,265,4.0,16.0,49,0.00,,RMK !SN!,0.00,WUHU216DAVISVP2,2013-04-08 19:22:00,
2013-04-08 15:27:00,68.5,48.6,29.87,East,82,9.0,16.0,49,0.00,,RMK !SN!,0.00,WUHU216DAVISVP2,2013-04-08 19:27:00,
2013-04-08 15:32:00,68.6,48.1,29.87,NNE,32,4.0,16.0,48,0.00,,RMK !SN!,0.00,WUHU216DAVISVP2,2013-04-08 19:32:00,
2013-04-08 15:37:00,68.5,48.0,29.87,NNW,347,12.0,16.0,48,0.00,,RMK !SN!,0.00,WUHU216DAVISVP2,2013-04-08 19:37:00,
2013-04-08 15:42:00,68.4,48.0,29.87,ENE,67,3.0,16.0,48,0.00,,RMK !SN!,0.00,WUHU216DAVISVP2,2013-04-08 19:42:00,
2013-04-08 15:47:00,68.4,48.0,29.87,NNE,16,6.0,16.0,48,0.00,,RMK !SN!,0.00,WUHU216DAVISVP2,2013-04-08 19:47:00,
2013-04-08 15:52:00,68.5,48.6,29.87,ESE,107,7.0,17.0,49,0.00,,RMK !SN!,0.00,WUHU216DAVISVP2,2013-04-08 19:52:00,
2013-04-08 15:57:00,68.7,48.2,29.87,NE,44,4.0,22.0,48,0.00,,RMK !SN!,0.00,WUHU216DAVISVP2,2013-04-08 19:57:00,
2013-04-08 16:02:00,68.8,48.3,29.87,NNW,332,7.0,22.0,48,0.00,,RMK !SN!,0.00,WUHU216DAVISVP2,2013-04-08 20:02:00,
2013-04-08 16:07:00,68.8,48.9,29.87,ENE,63,3.0,21.0,49,0.00,,RMK !SN!,0.00,WUHU216DAVISVP2,2013-04-08 20:07:00,
2013-04-08 16:12:00,68.9,49.0,29.87,ENE,58,3.0,21.0,49,0.00,,RMK !SN!,0.00,WUHU216DAVISVP2,2013-04-08 20:12:00,
2013-04-08 16:17:00,69.1,49.1,29.86,NW,318,5.0,18.0,49,0.00,,RMK !SN!,0.00,WUHU216DAVISVP2,2013-04-08 20:17:00,
2013-04-08 16:22:00,69.1,49.1,29.87,ENE,61,5.0,17.0,49,0.00,,RMK !SN!,0.00,WUHU216DAVISVP2,2013-04-08 20:22:00,
2013-04-08 16:27:00,69.0,49.6,29.87,East,82,6.0,15.0,50,0.00,,RMK !SN!,0.00,WUHU216DAVISVP2,2013-04-08 20:27:00,
2013-04-08 16:32:00,68.9,49.5,29.87,NNE,20,5.0,16.0,50,0.00,,RMK !SN!,0.00,WUHU216DAVISVP2,2013-04-08 20:32:00,
2013-04-08 16:37:00,68.8,49.4,29.86,NNW,342,6.0,16.0,50,0.00,,RMK !SN!,0.00,WUHU216DAVISVP2,2013-04-08 20:37:00,
2013-04-08 16:42:00,68.7,49.4,29.87,ENE,63,3.0,16.0,50,0.00,,RMK !SN!,0.00,WUHU216DAVISVP2,2013-04-08 20:42:00,
2013-04-08 16:47:00,68.6,49.8,29.86,North,354,3.0,15.0,51,0.00,,RMK !SN!,0.00,WUHU216DAVISVP2,2013-04-08 20:47:00,
2013-04-08 16:52:00,68.6,49.8,29.86,WNW,294,12.0,15.0,51,0.00,,RMK !SN!,0.00,WUHU216DAVISVP2,2013-04-08 20:52:00,
2013-04-08 16:57:00,68.8,49.9,29.85,NW,304,16.0,21.0,51,0.00,,RMK !SN!,0.00,WUHU216DAVISVP2,2013-04-08 20:57:00,
2013-04-08 17:02:00,69.1,50.2,29.85,ESE,110,7.0,21.0,51,0.00,,RMK !SN!,0.00,WUHU216DAVISVP2,2013-04-08 21:02:00,
2013-04-08 17:07:00,69.2,50.3,29.85,NNE,20,6.0,21.0,51,0.00,,RMK !SN!,0.00,WUHU216DAVISVP2,2013-04-08 21:07:00,
2013-04-08 17:12:00,69.1,50.2,29.85,WNW,283,2.0,21.0,51,0.00,,RMK !SN!,0.00,WUHU216DAVISVP2,2013-04-08 21:12:00,
2013-04-08 17:17:00,69.3,51.0,29.85,ENE,63,4.0,21.0,52,0.00,,RMK !SN!,0.00,WUHU216DAVISVP2,2013-04-08 21:17:00,
2013-04-08 17:22:00,69.2,50.9,29.85,NE,46,2.0,15.0,52,0.00,,RMK !SN!,0.00,WUHU216DAVISVP2,2013-04-08 21:22:00,
2013-04-08 17:27:00,68.9,50.6,29.85,NW,315,4.0,19.0,52,0.00,,RMK !SN!,0.00,WUHU216DAVISVP2,2013-04-08 21:27:00,
2013-04-08 17:32:00,68.7,50.4,29.85,NNW,332,3.0,19.0,52,0.00,,RMK !SN!,0.00,WUHU216DAVISVP2,2013-04-08 21:32:00,
2013-04-08 17:37:00,68.6,50.4,29.85,NNW,338,4.0,19.0,52,0.00,,RMK !SN!,0.00,WUHU216DAVISVP2,2013-04-08 21:37:00,
2013-04-08 17:42:00,68.5,50.8,29.85,ESE,114,5.0,19.0,53,0.00,,RMK !SN!,0.00,WUHU216DAVISVP2,2013-04-08 21:42:00,
2013-04-08 17:47:00,68.4,50.7,29.85,NNW,344,7.0,15.0,53,0.00,,RMK !SN!,0.00,WUHU216DAVISVP2,2013-04-08 21:47:00,
2013-04-08 17:52:00,68.4,50.7,29.85,NNE,29,6.0,18.0,53,0.00,,RMK !SN!,0.00,WUHU216DAVISVP2,2013-04-08 21:52:00,
2013-04-08 17:57:00,68.5,50.8,29.85,WNW,293,6.0,18.0,53,0.00,,RMK !SN!,0.00,WUHU216DAVISVP2,2013-04-08 21:57:00,
2013-04-08 18:02:00,68.5,50.8,29.85,NNE,30,5.0,16.0,53,0.00,,RMK !SN!,0.00,WUHU216DAVISVP2,2013-04-08 22:02:00,
2013-04-08 18:07:00,68.7,51.0,29.85,WNW,302,10.0,16.0,53,0.00,,RMK !SN!,0.00,WUHU216DAVISVP2,2013-04-08 22:07:00,
2013-04-08 18:12:00,68.9,51.2,29.85,East,82,5.0,15.0,53,0.00,,RMK !SN!,0.00,WUHU216DAVISVP2,2013-04-08 22:12:00,
2013-04-08 18:17:00,69.0,51.3,29.85,East,95,2.0,15.0,53,0.00,,RMK !SN!,0.00,WUHU216DAVISVP2,2013-04-08 22:17:00,
2013-04-08 18:22:00,69.0,51.3,29.85,SSW,198,2.0,15.0,53,0.00,,RMK !SN!,0.00,WUHU216DAVISVP2,2013-04-08 22:22:00,
2013-04-08 18:27:00,69.2,52.0,29.85,North,4,5.0,17.0,54,0.00,,RMK !SN!,0.00,WUHU216DAVISVP2,2013-04-08 22:27:00,
2013-04-08 18:32:00,69.1,51.9,29.85,NE,56,4.0,17.0,54,0.00,,RMK !SN!,0.00,WUHU216DAVISVP2,2013-04-08 22:32:00,
2013-04-08 18:37:00,69.1,51.9,29.85,ENE,61,3.0,17.0,54,0.00,,RMK !SN!,0.00,WUHU216DAVISVP2,2013-04-08 22:37:00,
2013-04-08 18:42:00,69.1,51.9,29.86,NW,311,5.0,17.0,54,0.00,,RMK !SN!,0.00,WUHU216DAVISVP2,2013-04-08 22:42:00,
2013-04-08 18:47:00,69.0,51.8,29.86,East,88,7.0,15.0,54,0.00,,RMK !SN!,0.00,WUHU216DAVISVP2,2013-04-08 22:47:00,
2013-04-08 18:52:00,68.9,51.7,29.86,East,84,1.0,15.0,54,0.00,,RMK !SN!,0.00,WUHU216DAVISVP2,2013-04-08 22:52:00,
2013-04-08 18:58:00,68.9,52.2,29.85,NE,41,2.0,15.0,55,0.00,,RMK !SN!,0.00,WUHU216DAVISVP2,2013-04-08 22:58:00,
2013-04-08 19:03:00,68.8,52.0,29.86,ESE,116,3.0,21.0,55,0.00,,RMK !SN!,0.00,WUHU216DAVISVP2,2013-04-08 23:03:00,
2013-04-08 19:08:00,68.8,52.0,29.86,NE,40,14.0,21.0,55,0.00,,RMK !SN!,0.00,WUHU216DAVISVP2,2013-04-08 23:08:00,
2013-04-08 19:13:00,68.8,52.0,29.86,East,91,1.0,21.0,55,0.00,,RMK !SN!,0.00,WUHU216DAVISVP2,2013-04-08 23:13:00,
2013-04-08 19:18:00,68.8,52.0,29.86,SSW,192,4.0,13.0,55,0.00,,RMK !SN!,0.00,WUHU216DAVISVP2,2013-04-08 23:18:00,
2013-04-08 19:23:00,68.8,52.0,29.85,East,86,7.0,13.0,55,0.00,,RMK !SN!,0.00,WUHU216DAVISVP2,2013-04-08 23:23:00,
2013-04-08 19:28:00,68.8,52.0,29.85,North,6,4.0,13.0,55,0.00,,RMK !SN!,0.00,WUHU216DAVISVP2,2013-04-08 23:28:00,
2013-04-08 19:33:00,68.6,51.8,29.85,East,79,1.0,13.0,55,0.00,,RMK !SN!,0.00,WUHU216DAVISVP2,2013-04-08 23:33:00,
2013-04-08 19:38:00,68.5,52.3,29.85,WNW,300,5.0,12.0,56,0.00,,RMK !SN!,0.00,WUHU216DAVISVP2,2013-04-08 23:38:00,
2013-04-08 19:43:00,68.4,52.2,29.85,NE,53,7.0,12.0,56,0.00,,RMK !SN!,0.00,WUHU216DAVISVP2,2013-04-08 23:43:00,
2013-04-08 19:48:00,68.3,52.1,29.86,NNW,338,7.0,12.0,56,0.00,,RMK !SN!,0.00,WUHU216DAVISVP2,2013-04-08 23:48:00,
2013-04-08 19:53:00,68.1,51.9,29.86,NE,49,3.0,12.0,56,0.00,,RMK !SN!,0.00,WUHU216DAVISVP2,2013-04-08 23:53:00,
2013-04-08 19:58:00,67.8,52.2,29.86,NE,46,2.0,10.0,57,0.00,,RMK !SN!,0.00,WUHU216DAVISVP2,2013-04-08 23:58:00,
2013-04-08 20:03:00,67.7,52.1,29.86,SSE,155,2.0,10.0,57,0.00,,RMK !SN!,0.00,WUHU216DAVISVP2,2013-04-09 00:03:00,
2013-04-08 20:08:00,67.5,51.9,29.87,East,82,2.0,10.0,57,0.00,,RMK !SN!,0.00,WUHU216DAVISVP2,2013-04-09 00:08:00,
2013-04-08 20:13:00,67.5,51.9,29.87,SE,136,1.0,12.0,57,0.00,,RMK !SN!,0.00,WUHU216DAVISVP2,2013-04-09 00:13:00,
2013-04-08 20:18:00,67.5,51.9,29.88,East,96,1.0,12.0,57,0.00,,RMK !SN!,0.00,WUHU216DAVISVP2,2013-04-09 00:18:00,
2013-04-08 20:23:00,67.6,52.0,29.88,NE,39,6.0,11.0,57,0.00,,RMK !SN!,0.00,WUHU216DAVISVP2,2013-04-09 00:23:00,
2013-04-08 20:28:00,67.7,52.1,29.88,East,86,4.0,11.0,57,0.00,,RMK !SN!,0.00,WUHU216DAVISVP2,2013-04-09 00:28:00,
2013-04-08 20:33:00,67.9,52.2,29.88,NNE,16,8.0,10.0,57,0.00,,RMK !SN!,0.00,WUHU216DAVISVP2,2013-04-09 00:33:00,
2013-04-08 20:38:00,67.9,52.1,29.89,ENE,74,3.0,14.0,57,0.00,,RMK !SN!,0.00,WUHU216DAVISVP2,2013-04-09 00:38:00,
2013-04-08 20:43:00,67.9,52.1,29.89,East,87,2.0,14.0,57,0.00,,RMK !SN!,0.00,WUHU216DAVISVP2,2013-04-09 00:43:00,
2013-04-08 20:48:00,67.9,52.2,29.89,ESE,119,1.0,14.0,57,0.00,,RMK !SN!,0.00,WUHU216DAVISVP2,2013-04-09 00:48:00,
2013-04-08 20:53:00,67.7,52.1,29.89,North,8,8.0,11.0,57,0.00,,RMK !SN!,0.00,WUHU216DAVISVP2,2013-04-09 00:53:00,
2013-04-08 20:58:00,67.6,52.4,29.89,West,273,2.0,11.0,58,0.00,,RMK !SN!,0.00,WUHU216DAVISVP2,2013-04-09 00:58:00,
2013-04-08 21:03:00,67.5,52.4,29.89,NE,37,4.0,15.0,58,0.00,,RMK !SN!,0.00,WUHU216DAVISVP2,2013-04-09 01:03:00,
2013-04-08 21:08:00,67.4,52.3,29.89,ESE,113,6.0,15.0,58,0.00,,RMK !SN!,0.00,WUHU216DAVISVP2,2013-04-09 01:08:00,
2013-04-08 21:13:00,67.3,52.6,29.89,ENE,60,1.0,13.0,59,0.00,,RMK !SN!,0.00,WUHU216DAVISVP2,2013-04-09 01:13:00,
2013-04-08 21:18:00,67.3,52.5,29.90,NNE,18,2.0,14.0,59,0.00,,RMK !SN!,0.00,WUHU216DAVISVP2,2013-04-09 01:18:00,
2013-04-08 21:23:00,67.3,52.6,29.90,ENE,59,2.0,14.0,59,0.00,,RMK !SN!,0.00,WUHU216DAVISVP2,2013-04-09 01:23:00,
2013-04-08 21:28:00,67.1,52.4,29.90,North,9,6.0,13.0,59,0.00,,RMK !SN!,0.00,WUHU216DAVISVP2,2013-04-09 01:28:00,
2013-04-08 21:33:00,67.1,52.4,29.90,East,98,3.0,13.0,59,0.00,,RMK !SN!,0.00,WUHU216DAVISVP2,2013-04-09 01:33:00,
2013-04-08 21:38:00,67.1,52.4,29.91,NE,38,8.0,10.0,59,0.00,,RMK !SN!,0.00,WUHU216DAVISVP2,2013-04-09 01:38:00,
2013-04-08 21:43:00,67.1,52.4,29.91,East,96,3.0,9.0,59,0.00,,RMK !SN!,0.00,WUHU216DAVISVP2,2013-04-09 01:43:00,
2013-04-08 21:48:00,67.1,52.9,29.92,NE,50,10.0,12.0,60,0.00,,RMK !SN!,0.00,WUHU216DAVISVP2,2013-04-09 01:48:00,
2013-04-08 21:53:00,67.1,52.9,29.92,NE,54,3.0,12.0,60,0.00,,RMK !SN!,0.00,WUHU216DAVISVP2,2013-04-09 01:53:00,
2013-04-08 21:58:00,67.0,52.8,29.92,North,356,4.0,12.0,60,0.00,,RMK !SN!,0.00,WUHU216DAVISVP2,2013-04-09 01:58:00,
2013-04-08 22:03:00,67.0,52.8,29.91,NNE,18,2.0,11.0,60,0.00,,RMK !SN!,0.00,WUHU216DAVISVP2,2013-04-09 02:03:00,
2013-04-08 22:08:00,66.9,52.6,29.92,East,82,3.0,9.0,60,0.00,,RMK !SN!,0.00,WUHU216DAVISVP2,2013-04-09 02:08:00,
2013-04-08 22:13:00,66.9,52.6,29.92,East,87,1.0,10.0,60,0.00,,RMK !SN!,0.00,WUHU216DAVISVP2,2013-04-09 02:13:00,
2013-04-08 22:18:00,66.8,52.9,29.92,NE,53,3.0,10.0,61,0.00,,RMK !SN!,0.00,WUHU216DAVISVP2,2013-04-09 02:18:00,
2013-04-08 22:23:00,66.8,52.9,29.92,East,91,1.0,9.0,61,0.00,,RMK !SN!,0.00,WUHU216DAVISVP2,2013-04-09 02:23:00,
2013-04-08 22:28:00,66.6,52.9,29.92,SE,138,2.0,9.0,61,0.00,,RMK !SN!,0.00,WUHU216DAVISVP2,2013-04-09 02:28:00,
2013-04-08 22:33:00,66.5,53.2,29.92,ENE,75,2.0,12.0,62,0.00,,RMK !SN!,0.00,WUHU216DAVISVP2,2013-04-09 02:33:00,
2013-04-08 22:38:00,66.5,53.2,29.92,ENE,75,2.0,12.0,62,0.00,,RMK !SN!,0.00,WUHU216DAVISVP2,2013-04-09 02:38:00,
2013-04-08 22:43:00,66.3,53.9,29.93,ENE,70,3.0,11.0,64,0.00,,RMK !SN!,0.00,WUHU216DAVISVP2,2013-04-09 02:43:00,
2013-04-08 22:48:00,65.4,55.1,29.93,SSW,204,2.0,9.0,69,0.05,,RMK !SN!,0.05,WUHU216DAVISVP2,2013-04-09 02:48:00,
2013-04-08 22:53:00,64.1,55.4,29.92,East,98,1.0,9.0,73,0.05,,RMK !SN!,0.05,WUHU216DAVISVP2,2013-04-09 02:53:00,
2013-04-08 22:58:00,63.3,55.2,29.93,ESE,115,0.0,8.0,75,0.05,,RMK !SN!,0.05,WUHU216DAVISVP2,2013-04-09 02:58:00,
2013-04-08 23:03:00,62.8,55.1,29.93,ESE,117,0.0,8.0,76,0.05,,RMK !SN!,0.05,WUHU216DAVISVP2,2013-04-09 03:03:00,
2013-04-08 23:08:00,62.4,55.9,29.94,ESE,121,0.0,5.0,79,0.05,,RMK !SN!,0.05,WUHU216DAVISVP2,2013-04-09 03:08:00,
2013-04-08 23:13:00,62.0,56.2,29.95,East,98,0.0,4.0,81,0.09,,RMK !SN!,0.09,WUHU216DAVISVP2,2013-04-09 03:13:00,
2013-04-08 23:18:00,61.3,55.8,29.95,ENE,70,3.0,16.0,82,0.17,,RMK !SN!,0.17,WUHU216DAVISVP2,2013-04-09 03:18:00,
2013-04-08 23:23:00,60.8,56.0,29.96,East,98,3.0,16.0,84,0.24,,RMK !SN!,0.24,WUHU216DAVISVP2,2013-04-09 03:23:00,
2013-04-08 23:28:00,59.9,55.7,29.97,NE,46,2.0,16.0,86,0.26,,RMK !SN!,0.26,WUHU216DAVISVP2,2013-04-09 03:28:00,
2013-04-08 23:33:00,59.2,55.6,29.97,South,174,2.0,14.0,88,0.27,,RMK !SN!,0.27,WUHU216DAVISVP2,2013-04-09 03:33:00,
2013-04-08 23:38:00,58.7,55.4,29.97,SE,131,2.0,10.0,89,0.27,,RMK !SN!,0.27,WUHU216DAVISVP2,2013-04-09 03:38:00,
2013-04-08 23:43:00,58.2,54.3,29.97,ENE,77,7.0,10.0,87,0.27,,RMK !SN!,0.27,WUHU216DAVISVP2,2013-04-09 03:43:00,
2013-04-08 23:48:00,57.6,53.1,29.97,ENE,62,1.0,8.0,85,0.22,,RMK !SN!,0.27,WUHU216DAVISVP2,2013-04-09 03:48:00,
2013-04-08 23:53:00,57.2,52.4,29.97,ENE,58,2.0,8.0,84,0.22,,RMK !SN!,0.27,WUHU216DAVISVP2,2013-04-09 03:53:00,
2013-04-08 23:58:00,57.0,51.9,29.98,ESE,118,0.0,8.0,83,0.22,,RMK !SN!,0.27,WUHU216DAVISVP2,2013-04-09 03:58:00,